When you browse on this site, cookies collect data to enhance your experience and personalize the content and advertising you see.
Visit our Privacy Policy to learn more. By continuing to use the site, you agree to this use of cookies and data.
  • In Lithuania
  • List of Countries
  • For 7 days
  • Water Temperature
  • Weather Map
  • Weather Widgets
  • user-avatar
    Login

    Hourly Weather Obock

    Today, 5 June, Friday

    Time Temperature Precipitation Wind Pressure Humidity
    00:00 +33°C° 0 mm 3 mps 753 mmHg 65%
    01:00 +33°C° 0.1 mm 3 mps 753 mmHg 67%
    02:00 +31°C° 0.1 mm 3 mps 752 mmHg 68%
    03:00 +31°C° 0 mm 3 mps 752 mmHg 70%
    04:00 +31°C° 0.5 mm 3 mps 753 mmHg 70%
    05:00 +30°C° 0.5 mm 2 mps 753 mmHg 70%
    06:00 +30°C° 0.5 mm 2 mps 754 mmHg 70%
    07:00 +31°C° 0 mm 2 mps 754 mmHg 64%
    08:00 +33°C° 0 mm 1 mps 754 mmHg 57%
    09:00 +34°C° 0 mm 1 mps 755 mmHg 51%
    10:00 +36°C° 0 mm 2 mps 754 mmHg 48%
    11:00 +37°C° 0 mm 3 mps 754 mmHg 45%
    12:00 +37°C° 0 mm 4 mps 754 mmHg 42%
    13:00 +37°C° 0 mm 4 mps 753 mmHg 45%
    14:00 +36°C° 0 mm 5 mps 752 mmHg 47%
    15:00 +35°C° 0 mm 5 mps 751 mmHg 50%
    16:00 +35°C° 0 mm 5 mps 751 mmHg 51%
    17:00 +35°C° 0 mm 4 mps 751 mmHg 52%
    18:00 +35°C° 0 mm 4 mps 752 mmHg 53%
    19:00 +35°C° 0 mm 3 mps 752 mmHg 53%
    20:00 +35°C° 0 mm 2 mps 752 mmHg 53%
    21:00 +33°C° 0 mm 1 mps 753 mmHg 54%
    22:00 +33°C° 0 mm 1 mps 753 mmHg 55%
    23:00 +33°C° 0 mm 1 mps 753 mmHg 56%

    Tomorrow, 6 June, Saturday

    Time Temperature Precipitation Wind Pressure Humidity
    00:00 +32°C° 0 mm 1 mps 753 mmHg 57%
    01:00 +32°C° 0.1 mm 1 mps 753 mmHg 59%
    02:00 +31°C° 0.1 mm 1 mps 752 mmHg 61%
    03:00 +31°C° 0.1 mm 1 mps 752 mmHg 63%
    04:00 +31°C° 0 mm 1 mps 752 mmHg 61%
    05:00 +31°C° 0 mm 1 mps 753 mmHg 59%
    06:00 +31°C° 0 mm 1 mps 753 mmHg 58%
    07:00 +33°C° 0 mm 1 mps 753 mmHg 52%
    08:00 +35°C° 0 mm 2 mps 754 mmHg 47%
    09:00 +37°C° 0 mm 2 mps 754 mmHg 42%
    10:00 +38°C° 0 mm 2 mps 753 mmHg 40%
    11:00 +39°C° 0 mm 2 mps 753 mmHg 38%
    12:00 +39°C° 0 mm 2 mps 753 mmHg 36%
    13:00 +40°C° 0 mm 3 mps 752 mmHg 36%
    14:00 +40°C° 0 mm 3 mps 751 mmHg 36%
    15:00 +41°C° 0 mm 4 mps 750 mmHg 36%
    16:00 +41°C° 0 mm 4 mps 750 mmHg 36%
    17:00 +40°C° 0 mm 4 mps 750 mmHg 37%
    18:00 +39°C° 0 mm 3 mps 750 mmHg 37%
    19:00 +38°C° 0 mm 3 mps 750 mmHg 39%
    20:00 +38°C° 0 mm 3 mps 751 mmHg 40%
    21:00 +37°C° 0 mm 4 mps 751 mmHg 42%
    22:00 +37°C° 0 mm 3 mps 751 mmHg 45%
    23:00 +36°C° 0 mm 2 mps 751 mmHg 49%

    Day after tomorrow, 7 June, Sunday

    Time Temperature Precipitation Wind Pressure Humidity
    00:00 +35°C° 0 mm 2 mps 751 mmHg 53%
    01:00 +34°C° 0 mm 1 mps 750 mmHg 55%
    02:00 +34°C° 0 mm 1 mps 750 mmHg 56%
    03:00 +33°C° 0 mm 1 mps 750 mmHg 58%
    04:00 +33°C° 0 mm 1 mps 750 mmHg 56%
    05:00 +34°C° 0 mm 2 mps 751 mmHg 54%
    06:00 +34°C° 0 mm 2 mps 751 mmHg 52%
    07:00 +36°C° 0 mm 2 mps 751 mmHg 47%
    08:00 +38°C° 0 mm 3 mps 752 mmHg 41%
    09:00 +41°C° 0 mm 4 mps 752 mmHg 35%
    10:00 +42°C° 0 mm 4 mps 752 mmHg 33%
    11:00 +43°C° 0 mm 4 mps 751 mmHg 30%
    12:00 +45°C° 0 mm 5 mps 751 mmHg 27%
    13:00 +44°C° 0 mm 4 mps 750 mmHg 27%
    14:00 +44°C° 0 mm 3 mps 750 mmHg 27%
    15:00 +45°C° 0 mm 2 mps 749 mmHg 27%
    16:00 +44°C° 0 mm 3 mps 749 mmHg 28%
    17:00 +43°C° 0 mm 5 mps 749 mmHg 29%
    18:00 +42°C° 0 mm 6 mps 748 mmHg 30%
    19:00 +42°C° 0 mm 6 mps 749 mmHg 32%
    20:00 +41°C° 0 mm 5 mps 749 mmHg 34%
    21:00 +40°C° 0 mm 5 mps 750 mmHg 36%
    22:00 +40°C° 0 mm 4 mps 750 mmHg 36%
    23:00 +38°C° 0 mm 4 mps 749 mmHg 36%

    8 June, Monday

    Time Temperature Precipitation Wind Pressure Humidity
    00:00 +38°C° 0 mm 3 mps 749 mmHg 36%
    01:00 +38°C° 0 mm 3 mps 749 mmHg 38%
    02:00 +37°C° 0 mm 4 mps 749 mmHg 40%
    03:00 +37°C° 0 mm 4 mps 749 mmHg 42%
    04:00 +37°C° 0 mm 4 mps 749 mmHg 41%
    05:00 +37°C° 0 mm 4 mps 750 mmHg 40%
    06:00 +36°C° 0 mm 4 mps 750 mmHg 39%
    07:00 +38°C° 0 mm 4 mps 750 mmHg 36%
    08:00 +39°C° 0 mm 3 mps 750 mmHg 33%
    09:00 +42°C° 0 mm 3 mps 751 mmHg 30%
    10:00 +43°C° 0 mm 3 mps 750 mmHg 28%
    11:00 +44°C° 0 mm 3 mps 750 mmHg 27%
    12:00 +45°C° 0 mm 4 mps 749 mmHg 25%
    13:00 +45°C° 0 mm 4 mps 749 mmHg 25%
    14:00 +46°C° 0 mm 5 mps 748 mmHg 25%
    15:00 +46°C° 0 mm 6 mps 747 mmHg 25%
    16:00 +46°C° 0 mm 6 mps 747 mmHg 26%
    17:00 +45°C° 0 mm 7 mps 747 mmHg 28%
    18:00 +44°C° 0 mm 7 mps 747 mmHg 29%
    19:00 +42°C° 0 mm 6 mps 748 mmHg 29%
    20:00 +42°C° 0 mm 6 mps 748 mmHg 29%
    21:00 +41°C° 0 mm 5 mps 749 mmHg 29%
    22:00 +40°C° 0 mm 5 mps 749 mmHg 32%
    23:00 +40°C° 0 mm 5 mps 748 mmHg 34%

    9 June, Tuesday

    Time Temperature Precipitation Wind Pressure Humidity
    00:00 +38°C° 0 mm 4 mps 748 mmHg 37%
    01:00 +37°C° 0 mm 4 mps 748 mmHg 37%
    02:00 +37°C° 0 mm 3 mps 748 mmHg 38%
    03:00 +36°C° 0 mm 3 mps 748 mmHg 39%
    04:00 +36°C° 0 mm 3 mps 748 mmHg 37%
    05:00 +36°C° 0 mm 2 mps 749 mmHg 35%
    06:00 +36°C° 0 mm 2 mps 749 mmHg 33%
    07:00 +38°C° 0 mm 2 mps 750 mmHg 31%
    08:00 +39°C° 0 mm 2 mps 750 mmHg 28%
    09:00 +42°C° 0 mm 3 mps 751 mmHg 26%
    10:00 +43°C° 0 mm 3 mps 750 mmHg 26%
    11:00 +43°C° 0 mm 3 mps 750 mmHg 27%
    12:00 +44°C° 0 mm 3 mps 749 mmHg 27%
    13:00 +44°C° 0 mm 4 mps 749 mmHg 27%
    14:00 +46°C° 0 mm 5 mps 748 mmHg 27%
    15:00 +46°C° 0 mm 6 mps 748 mmHg 26%
    16:00 +45°C° 0 mm 7 mps 748 mmHg 28%
    17:00 +44°C° 0 mm 8 mps 748 mmHg 29%
    18:00 +44°C° 0 mm 9 mps 748 mmHg 30%
    19:00 +43°C° 0 mm 8 mps 748 mmHg 29%
    20:00 +41°C° 0 mm 8 mps 749 mmHg 27%
    21:00 +40°C° 0 mm 7 mps 749 mmHg 26%
    22:00 +40°C° 0 mm 6 mps 749 mmHg 32%
    23:00 +39°C° 0 mm 6 mps 749 mmHg 38%

    10 June, Wednesday

    Time Temperature Precipitation Wind Pressure Humidity
    00:00 +37°C° 0 mm 5 mps 749 mmHg 44%
    01:00 +37°C° 0 mm 4 mps 748 mmHg 39%
    02:00 +37°C° 0 mm 3 mps 748 mmHg 35%
    03:00 +37°C° 0 mm 3 mps 748 mmHg 31%
    04:00 +37°C° 0 mm 2 mps 748 mmHg 31%
    05:00 +37°C° 0 mm 2 mps 749 mmHg 31%
    06:00 +36°C° 0 mm 2 mps 749 mmHg 32%
    07:00 +38°C° 0 mm 2 mps 750 mmHg 28%
    08:00 +40°C° 0 mm 2 mps 750 mmHg 25%
    09:00 +42°C° 0 mm 2 mps 750 mmHg 21%
    10:00 +44°C° 0 mm 3 mps 750 mmHg 22%
    11:00 +44°C° 0 mm 3 mps 750 mmHg 22%
    12:00 +44°C° 0 mm 4 mps 749 mmHg 23%
    13:00 +45°C° 0 mm 4 mps 749 mmHg 22%
    14:00 +46°C° 0 mm 5 mps 748 mmHg 22%
    15:00 +47°C° 0 mm 5 mps 747 mmHg 22%
    16:00 +47°C° 0 mm 6 mps 747 mmHg 22%
    17:00 +46°C° 0 mm 6 mps 747 mmHg 23%
    18:00 +46°C° 0 mm 7 mps 747 mmHg 23%
    19:00 +44°C° 0 mm 7 mps 747 mmHg 23%
    20:00 +42°C° 0 mm 6 mps 748 mmHg 23%
    21:00 +41°C° 0 mm 6 mps 748 mmHg 24%
    22:00 +40°C° 0 mm 6 mps 748 mmHg 28%
    23:00 +39°C° 0 mm 5 mps 748 mmHg 32%
    Show more